Zurück zum Katalog

COSMOS 1036

AktivMilitärLEO
NORAD 11045·PAYLOAD·🇷🇺 Russia

Gestartet Oct 4, 1978 von Plesetsk Cosmodrome

Loading…

Nächste Überflüge (nächste 24 Stunden)

TLE

AktuellSource: Space-Track

Epoche: Sep 14, 2026, 05:13 UTC

1 11045U 78091C   26257.21803785 -.00000001  00000-0  99471-4 0  9998
2 11045  74.0367 183.3902 0024335  18.8032 132.6218 12.50853260189356

Verfolge COSMOS 1036 in Echtzeit mit AllMySat

Download on the App Store